Regional Weather Roundup
Issued by NWS Jackson, KY

Home | Current Version | Previous Version | Text Only | Print | Product List | Glossary Off
Versions: 1 2 3 4 5 6 7 8 9 10 11 12 13 14 15 16 17 18 19 20 21 22 23 24 25 26 27 28 29 30 31 32 33 34 35 36 37 38 39 40 41 42 43 44 45 46 47 48 49 50

434
ASUS43 KJKL 061410
RWRJKL

EAST KENTUCKY HOURLY WEATHER ROUNDUP
NATIONAL WEATHER SERVICE JACKSON KY
900 AM EST SAT FEB 06 2016

NOTE: "FAIR" INDICATES FEW OR NO CLOUDS BELOW 12,000 FEET WITH
NO SIGNIFICANT WEATHER AND/OR OBSTRUCTIONS TO VISIBILITY.

* THESE REPORTS ARE NOT UNDER NWS QUALITY CONTROL AND MAY NOT
  REPORT WEATHER SUCH AS PRECIPITATION AND FOG.

KYZ079-080-083-085-087-088-110-112-115-119-120-061500
...EASTERN KENTUCKY...

CITY           SKY/WX    TMP DP  RH WIND       PRES   REMARKS
JACKSON        MOSUNNY   33  17  51 S3        30.36R
LONDON         SUNNY     28  21  75 CALM      30.38R
SOMERSET*      SUNNY     30  21  69 CALM      30.41R
MONTICELLO*    SUNNY     31  23  72 NW9       30.41R WCI  23
WILLIAMSBURG*  SUNNY     28  25  86 CALM      30.39R
MIDDLESBORO*   SUNNY     25  23  92 CALM      30.42R
HARLAN APT*      N/A     27  23  86 CALM      30.39R
HAZARD APT*    SUNNY    N/A N/A N/A CALM      30.37S
BLACK MTN*       N/A     28  16  59 SW2         N/A
BIG SANDY*     SUNNY     32  19  57 S5        30.36S WCI  28
MOREHEAD APT*  MOSUNNY   30  19  64 CALM      30.38R
$$

KYZ035-036-041-042-044-050-067-078-099-061500
...CENTRAL KENTUCKY...

CITY           SKY/WX    TMP DP  RH WIND       PRES   REMARKS
MT STERLING*   SUNNY     32  19  59 SW6       30.37R WCI  26
DANVILLE*      SUNNY     32  21  64 S6        30.37S WCI  26
RICHMOND*      SUNNY     34  18  51 S7        30.36R WCI  28
LEXINGTON      SUNNY     31  20  63 S5        30.35R WCI  26
FRANKFORT      SUNNY     29  20  69 CALM      30.35R
$$

KYZ091>093-OHZ055-061-077-WVZ005-015-034-035-042-061500
...SOUTHERN OHIO/WEST VIRGINIA...

CITY           SKY/WX    TMP DP  RH WIND       PRES   REMARKS
COVINGTON      MOSUNNY   27  25  92 CALM      30.34S FOG
COLUMBUS       MOSUNNY   28  22  78 CALM      30.33S
DAYTON         MOSUNNY   25  24  96 SW7       30.33S FOG     WCI  17
WILMINGTON     MOSUNNY   29  25  85 CALM      30.33R FOG
HUNTINGTON       N/A     32  18  56 S8        30.36S WCI  25
CHARLESTON     PTSUNNY   28  21  75 CALM      30.37R
PINEVILLE*       N/A     27  20  76 MISG      30.42S
BECKLEY          N/A     30  14  51 S5        30.33R WCI  25
$$

VAZ002-007-008-TNZ017-027-036-066-071-061500
...SOUTHWEST VIRGINIA/EAST TENNESSEE...

CITY           SKY/WX    TMP DP  RH WIND       PRES   REMARKS
BRISTOL        PTSUNNY   27  21  78 NE3       30.40R
KNOXVILLE      CLOUDY    29  21  72 NE6       30.41R WCI  23
OAK RIDGE      SUNNY     30  25  81 CALM      30.43R
CROSSVILLE     SUNNY     31  23  72 CALM      30.37R
NASHVILLE      PTSUNNY   31  23  72 CALM      30.40R
$$

...KEY TO REMARKS...
VSB - VISIBILITY IN MILES
WCI - WIND CHILL INDEX
HX  - HEAT INDEX

$$




USA.gov is the U.S. government's official web portal to all federal, state and local government web resources and services.